Time,TemperatureF,DewpointF,PressureIn,WindDirection,WindDirectionDegrees,WindSpeedMPH,WindSpeedGustMPH,Humidity,HourlyPrecipIn,Conditions,Clouds,dailyrainin,SoftwareType,DateUTC
2013-03-30 00:02:00,31.0,25.0,30.22,North,355,0.0,-999.0,79,-99.99,,,-99.99,,2013-03-30 04:02:00,
2013-03-30 00:12:00,31.0,25.0,30.22,North,355,0.0,-999.0,79,-99.99,,,-99.99,,2013-03-30 04:12:00,
2013-03-30 00:23:00,31.0,26.0,30.22,North,355,0.0,-999.0,80,-99.99,,,-99.99,,2013-03-30 04:23:00,
2013-03-30 00:33:00,30.0,24.0,30.21,North,355,0.0,-999.0,79,-99.99,,,-99.99,,2013-03-30 04:33:00,
2013-03-30 00:43:00,30.0,24.0,30.21,North,355,0.0,-999.0,79,-99.99,,,-99.99,,2013-03-30 04:43:00,
2013-03-30 00:53:00,30.0,25.0,30.21,North,355,0.0,-999.0,82,-99.99,,,-99.99,,2013-03-30 04:53:00,
2013-03-30 01:02:00,30.0,25.0,30.21,North,355,0.0,-999.0,83,-99.99,,,-99.99,,2013-03-30 05:02:00,
2013-03-30 01:12:00,30.0,25.0,30.21,North,355,0.0,-999.0,83,-99.99,,,-99.99,,2013-03-30 05:12:00,
2013-03-30 01:22:00,29.0,25.0,30.21,North,355,0.0,-999.0,83,-99.99,,,-99.99,,2013-03-30 05:22:00,
2013-03-30 01:32:00,29.0,24.0,30.22,North,355,0.0,-999.0,82,-99.99,,,-99.99,,2013-03-30 05:32:00,
2013-03-30 01:42:00,29.0,24.0,30.22,North,355,0.0,-999.0,82,-99.99,,,-99.99,,2013-03-30 05:42:00,
2013-03-30 01:52:00,29.0,25.0,30.22,North,355,0.0,-999.0,85,-99.99,,,-99.99,,2013-03-30 05:52:00,
2013-03-30 02:02:00,29.0,25.0,30.22,North,355,0.0,-999.0,86,-99.99,,,-99.99,,2013-03-30 06:02:00,
2013-03-30 02:12:00,29.0,25.0,30.22,North,355,0.0,-999.0,86,-99.99,,,-99.99,,2013-03-30 06:12:00,
2013-03-30 02:23:00,28.0,24.0,30.22,North,355,0.0,-999.0,84,-99.99,,,-99.99,,2013-03-30 06:23:00,
2013-03-30 02:32:00,28.0,24.0,30.22,North,355,0.0,-999.0,84,-99.99,,,-99.99,,2013-03-30 06:32:00,
2013-03-30 02:42:00,28.0,24.0,30.22,North,355,0.0,-999.0,84,-99.99,,,-99.99,,2013-03-30 06:42:00,
2013-03-30 02:52:00,28.0,24.0,30.21,North,355,0.0,-999.0,85,-99.99,,,-99.99,,2013-03-30 06:52:00,
2013-03-30 03:02:00,28.0,24.0,30.21,North,355,0.0,-999.0,86,-99.99,,,-99.99,,2013-03-30 07:02:00,
2013-03-30 03:12:00,28.0,24.0,30.21,North,355,0.0,-999.0,86,-99.99,,,-99.99,,2013-03-30 07:12:00,
2013-03-30 03:22:00,28.0,24.0,30.21,North,355,0.0,-999.0,86,-99.99,,,-99.99,,2013-03-30 07:22:00,
2013-03-30 03:32:00,27.0,24.0,30.22,North,355,0.0,-999.0,87,-99.99,,,-99.99,,2013-03-30 07:32:00,
2013-03-30 03:42:00,27.0,24.0,30.22,North,355,0.0,-999.0,87,-99.99,,,-99.99,,2013-03-30 07:42:00,
2013-03-30 03:52:00,27.0,24.0,30.21,North,355,0.0,-999.0,87,-99.99,,,-99.99,,2013-03-30 07:52:00,
2013-03-30 04:02:00,27.0,24.0,30.21,North,355,0.0,-999.0,87,-99.99,,,-99.99,,2013-03-30 08:02:00,
2013-03-30 04:12:00,27.0,24.0,30.21,North,355,0.0,-999.0,87,-99.99,,,-99.99,,2013-03-30 08:12:00,
2013-03-30 04:22:00,27.0,24.0,30.21,North,355,0.0,-999.0,88,-99.99,,,-99.99,,2013-03-30 08:22:00,
2013-03-30 04:32:00,27.0,24.0,30.21,North,355,0.0,-999.0,88,-99.99,,,-99.99,,2013-03-30 08:32:00,
2013-03-30 04:42:00,27.0,24.0,30.21,North,355,0.0,-999.0,88,-99.99,,,-99.99,,2013-03-30 08:42:00,
2013-03-30 04:53:00,26.0,23.0,30.21,North,355,0.0,-999.0,89,-99.99,,,-99.99,,2013-03-30 08:53:00,
2013-03-30 05:02:00,26.0,23.0,30.21,North,355,0.0,-999.0,89,-99.99,,,-99.99,,2013-03-30 09:02:00,
2013-03-30 05:12:00,26.0,23.0,30.21,North,355,0.0,-999.0,89,-99.99,,,-99.99,,2013-03-30 09:12:00,
2013-03-30 05:22:00,26.0,23.0,30.21,North,355,0.0,-999.0,89,-99.99,,,-99.99,,2013-03-30 09:22:00,
2013-03-30 05:43:00,26.0,23.0,30.21,North,355,0.0,-999.0,89,-99.99,,,-99.99,,2013-03-30 09:43:00,
2013-03-30 05:54:00,26.0,23.0,30.21,North,355,0.0,-999.0,90,-99.99,,,-99.99,,2013-03-30 09:54:00,
2013-03-30 06:02:00,26.0,23.0,30.20,North,355,0.0,-999.0,89,-99.99,,,-99.99,,2013-03-30 10:02:00,
2013-03-30 06:13:00,26.0,23.0,30.20,North,355,0.0,-999.0,89,-99.99,,,-99.99,,2013-03-30 10:13:00,
2013-03-30 06:23:00,26.0,23.0,30.21,North,355,0.0,-999.0,90,-99.99,,,-99.99,,2013-03-30 10:23:00,
2013-03-30 06:33:00,26.0,23.0,30.21,North,355,0.0,-999.0,90,-99.99,,,-99.99,,2013-03-30 10:33:00,
2013-03-30 06:42:00,26.0,23.0,30.21,North,355,0.0,-999.0,90,-99.99,,,-99.99,,2013-03-30 10:42:00,
2013-03-30 06:53:00,25.0,22.0,30.21,North,355,0.0,-999.0,90,-99.99,,,-99.99,,2013-03-30 10:53:00,
2013-03-30 07:03:00,25.0,22.0,30.21,North,355,0.0,-999.0,90,-99.99,,,-99.99,,2013-03-30 11:03:00,
2013-03-30 07:12:00,25.0,22.0,30.21,North,355,0.0,-999.0,90,-99.99,,,-99.99,,2013-03-30 11:12:00,
2013-03-30 07:22:00,25.0,23.0,30.21,North,355,0.0,-999.0,91,-99.99,,,-99.99,,2013-03-30 11:22:00,
2013-03-30 07:33:00,25.0,23.0,30.22,North,355,0.0,-999.0,91,-99.99,,,-99.99,,2013-03-30 11:33:00,
2013-03-30 07:42:00,25.0,23.0,30.22,North,355,0.0,-999.0,91,-99.99,,,-99.99,,2013-03-30 11:42:00,
2013-03-30 07:53:00,25.0,23.0,30.22,North,355,0.0,-999.0,91,-99.99,,,-99.99,,2013-03-30 11:53:00,
2013-03-30 08:02:00,25.0,23.0,30.22,North,355,0.0,-999.0,92,-99.99,,,-99.99,,2013-03-30 12:02:00,
2013-03-30 08:13:00,25.0,23.0,30.22,North,355,0.0,-999.0,92,-99.99,,,-99.99,,2013-03-30 12:13:00,
2013-03-30 08:22:00,26.0,24.0,30.23,North,355,0.0,-999.0,91,-99.99,,,-99.99,,2013-03-30 12:22:00,
2013-03-30 08:32:00,27.0,24.0,30.23,North,355,0.0,-999.0,90,-99.99,,,-99.99,,2013-03-30 12:32:00,
2013-03-30 08:42:00,27.0,24.0,30.23,North,355,0.0,-999.0,90,-99.99,,,-99.99,,2013-03-30 12:42:00,
2013-03-30 08:52:00,29.0,26.0,30.24,ENE,69,0.0,-999.0,88,-99.99,,,-99.99,,2013-03-30 12:52:00,
2013-03-30 09:02:00,31.0,27.0,30.24,ENE,70,0.0,-999.0,86,-99.99,,,-99.99,,2013-03-30 13:02:00,
2013-03-30 09:12:00,31.0,27.0,30.24,ENE,70,0.0,-999.0,86,-99.99,,,-99.99,,2013-03-30 13:12:00,
2013-03-30 09:22:00,33.0,28.0,30.23,East,91,0.0,-999.0,82,-99.99,,,-99.99,,2013-03-30 13:22:00,
2013-03-30 09:32:00,33.0,28.0,30.23,East,91,0.0,-999.0,82,-99.99,,,-99.99,,2013-03-30 13:32:00,
2013-03-30 09:43:00,33.0,28.0,30.23,East,91,0.0,-999.0,82,-99.99,,,-99.99,,2013-03-30 13:43:00,
2013-03-30 09:53:00,37.0,30.0,30.22,SE,145,0.0,-999.0,75,-99.99,,,-99.99,,2013-03-30 13:53:00,
2013-03-30 10:03:00,39.0,30.0,30.22,SSE,151,1.0,-999.0,71,-99.99,,,-99.99,,2013-03-30 14:03:00,
2013-03-30 10:12:00,39.0,30.0,30.22,SSE,151,1.0,-999.0,71,-99.99,,,-99.99,,2013-03-30 14:12:00,
2013-03-30 10:23:00,42.0,32.0,30.21,SE,134,0.0,-999.0,67,-99.99,,,-99.99,,2013-03-30 14:23:00,
2013-03-30 10:32:00,44.0,31.0,30.21,SSE,163,1.0,-999.0,59,-99.99,,,-99.99,,2013-03-30 14:32:00,
2013-03-30 10:42:00,44.0,31.0,30.21,SSE,163,1.0,-999.0,59,-99.99,,,-99.99,,2013-03-30 14:42:00,
2013-03-30 10:52:00,46.0,32.0,30.20,SE,130,1.0,-999.0,57,-99.99,,,-99.99,,2013-03-30 14:52:00,
2013-03-30 11:03:00,48.0,33.0,30.19,South,171,1.0,-999.0,55,-99.99,,,-99.99,,2013-03-30 15:03:00,
2013-03-30 11:12:00,48.0,33.0,30.19,South,171,1.0,-999.0,55,-99.99,,,-99.99,,2013-03-30 15:12:00,
2013-03-30 11:22:00,49.0,30.0,30.19,SSW,196,2.0,-999.0,48,-99.99,,,-99.99,,2013-03-30 15:22:00,
2013-03-30 11:33:00,50.0,31.0,30.19,ESE,107,1.0,-999.0,48,-99.99,,,-99.99,,2013-03-30 15:33:00,
2013-03-30 11:43:00,50.0,31.0,30.19,ESE,107,1.0,-999.0,48,-99.99,,,-99.99,,2013-03-30 15:43:00,
2013-03-30 11:52:00,51.0,30.0,30.18,SW,227,1.0,-999.0,45,-99.99,,,-99.99,,2013-03-30 15:52:00,
2013-03-30 12:03:00,51.0,29.0,30.18,SSE,159,2.0,-999.0,42,-99.99,,,-99.99,,2013-03-30 16:03:00,
2013-03-30 12:13:00,51.0,28.0,30.17,SSW,200,3.0,-999.0,41,-99.99,,,-99.99,,2013-03-30 16:13:00,
2013-03-30 12:23:00,51.0,28.0,30.17,SSW,200,3.0,-999.0,41,-99.99,,,-99.99,,2013-03-30 16:23:00,
2013-03-30 12:33:00,51.0,28.0,30.17,SSW,200,3.0,-999.0,41,-99.99,,,-99.99,,2013-03-30 16:33:00,
2013-03-30 12:43:00,51.0,28.0,30.17,SSW,200,3.0,-999.0,41,-99.99,,,-99.99,,2013-03-30 16:43:00,
2013-03-30 12:52:00,51.0,28.0,30.17,SSW,200,3.0,-999.0,41,-99.99,,,-99.99,,2013-03-30 16:52:00,
2013-03-30 13:02:00,51.0,28.0,30.17,SSW,200,3.0,-999.0,41,-99.99,,,-99.99,,2013-03-30 17:02:00,